Aérodrome :
LOGIN :

S'inscrire | Disclaimer

   EN    FR    IT 

 










Légende :    VFR   VFR Marginal   IFR   IFR Intensif   IFR Très Intensif
Visi : 
Plafond : 
>= 8 km
>= 3000ft
5 à 8 km
1000 à 3000 ft
1500m à 5 km
500 à 1000 ft
800 à 1500m
200 à 500 ft
< 800m
< 200 ft
Symboles :   Orages  Brouillard  Fortes neiges  Fortes précipitations  Vent > 20 kt
SIGMETs :   Divers  Orages  Givrage  Turbulence  Onde Orograph.  Cendres Volcan.







- Altitude de l'aérodrome : 49 ft
- Code IATA : SEN
- Voir les cartes d'approche


EGMC - Southend

DERNIER METAR :
  • 231620Z 21008KT 9999 VCSH BKN010 15/13 Q1016

METARs EXPIRÉS :
  • 231550Z 22008KT 9999 SCT009 BKN011 15/13 Q1016
  • 231520Z 22010KT 9999 SCT009 BKN014 16/13 Q1016
  • 231450Z 23011KT 9999 BKN011 16/13 Q1016
  • 231420Z 21009KT 9999 BKN012 15/12 Q1017
  • 231350Z 21009KT 9999 BKN012 16/13 Q1016

TAF TAF EGMC
Valide du 23 à 15h jusqu'au 24 à 00h UTC


231401Z 2315/2324 20009KT 9999 BKN013
TEMPO 2315/2324 7000 -DZ BKN008
PROB30
TEMPO 2315/2320 4000 RADZ BKN004
Pas de NOTAMs connus pour ce terrain.



MET'MAP, la Météo Aéronautique d'un coup d'oeil ! - Copyright ORBIFLY Décembre 2007 - Disclaimer

ORBIFLY MET'MAP TEAM :

Programmation & Développement : Alexandra Zaïnal
Conception & Développement : Baudouin d'Aumeries
Co-Programmation & Développement : Marc-Olivier Méhu
Soutien technique & logistique : Manuel Goepfert

Contact : metmap@orbifly.com




SOURCES & CREDITS :

   NOAA